Oak Ridge, TN

12:58 PM EDT on April 30, 2017 (GMT -0400)
Oak Ridge

Weather History for KOQT - December, 2012

Change the Weather History Date:

Monday, December 10, 2012

  Actual Average (KTYS) Record (KTYS)
Temperature  
Mean Temperature 53 °F -  
Max Temperature 62 °F 51 °F 73 °F (1971)
Min Temperature 43 °F 32 °F 8 °F (1917)
Degree Days  
Heating Degree Days 12    
Growing Degree Days 3 (Base 50)    
Moisture  
Dew Point 52 °F    
Average Humidity 89    
Maximum Humidity 100    
Minimum Humidity 71    
Precipitation  
Precipitation 1.39 in - - ()
Sea Level Pressure  
Sea Level Pressure 29.77 in    
Wind  
Wind Speed 3 mph (SSW)    
Max Wind Speed 7 mph    
Max Gust Speed 17 mph    
Visibility 6 miles    
Events Rain    
Averages and records for this station are not official NWS values.
T = Trace of Precipitation, MM = Missing Value Source: NWS Daily Summary

Daily Weather History Graph

Daily Weather History Graph

Search for Another Location

Airport or City:

Trip Planner

Search our weather history database for the weather conditions in past years. The results will help you decide how hot, cold, wet, or windy it might be!

Date:

Astronomy

Dec. 10, 2012 Rise Set
Actual Time 7:37 AM EST 5:22 PM EST
Civil Twilight 7:08 AM EST 5:51 PM EST
Nautical Twilight 6:36 AM EST 6:23 PM EST
Astronomical Twilight 6:05 AM EST 6:54 PM EST
Moon 4:22 AM EST (12/10) 3:08 PM EST (12/10)
Length of Visible Light 10h 42m
Length of Day
9h 45m
Waning Crescent, 10% of the Moon is Illuminated
Dec 10
Waning Crescent
Dec 13
New
Dec 20
First Quarter
Dec 28
Full
Jan 4
Last Quarter

Hourly Weather History & Observations

Time (EST) Temp. Windchill Dew Point Humidity Pressure Visibility Wind Dir Wind Speed Gust Speed Precip Events Conditions
12:53 AM 60.1 °F - 53.1 °F 78% 29.85 in 9.0 mi Calm Calm - N/A   Overcast
1:53 AM 60.1 °F - 53.1 °F 78% 29.82 in 10.0 mi Calm Calm - N/A   Overcast
2:53 AM 62.1 °F - 53.1 °F 72% 29.80 in 10.0 mi Variable 4.6 mph - N/A   Overcast
3:53 AM 61.0 °F - 54.0 °F 78% 29.77 in 8.0 mi WSW 4.6 mph 17.3 mph 0.02 in Rain Light Rain
4:32 AM 60.8 °F - 55.4 °F 82% 29.77 in 2.5 mi West 6.9 mph - 0.01 in Rain Heavy Rain
4:50 AM 59.0 °F - 55.4 °F 88% 29.78 in 8.0 mi Variable 5.8 mph - 0.12 in Rain Light Rain
4:53 AM 59.0 °F - 55.9 °F 90% 29.76 in 7.0 mi Variable 4.6 mph - 0.13 in Rain Light Rain
5:02 AM 59.0 °F - 55.4 °F 88% 29.78 in 1.5 mi WSW 4.6 mph - 0.01 in Rain Heavy Rain
5:10 AM 57.2 °F - 55.4 °F 94% 29.78 in 0.8 mi Variable 3.5 mph - 0.23 in Rain Rain
5:17 AM 57.2 °F - 55.4 °F 94% 29.78 in 2.0 mi Calm Calm - 0.27 in Rain Rain
5:27 AM 57.2 °F - 55.4 °F 94% 29.78 in 6.0 mi Calm Calm - 0.27 in Rain Light Rain
5:40 AM 57.2 °F - 55.4 °F 94% 29.77 in 4.0 mi Calm Calm - 0.27 in Rain Light Rain
5:53 AM 57.9 °F - 55.9 °F 93% 29.76 in 6.0 mi Calm Calm - 0.31 in Rain Light Rain
6:13 AM 57.2 °F - 57.2 °F 100% 29.77 in 5.0 mi ESE 3.5 mph - 0.01 in   Overcast
6:26 AM 57.2 °F - 55.4 °F 94% 29.76 in 7.0 mi Variable 5.8 mph - 0.01 in Rain Light Rain
6:34 AM 57.2 °F - 57.2 °F 100% 29.78 in 1.8 mi WSW 4.6 mph - 0.09 in Rain Heavy Rain
6:53 AM 57.0 °F - 55.9 °F 96% 29.78 in 1.0 mi Variable 3.5 mph - 0.29 in Rain Heavy Rain
7:04 AM 57.2 °F - 55.4 °F 94% 29.79 in 3.0 mi Calm Calm - 0.06 in Rain Rain
7:53 AM 57.0 °F - 55.0 °F 93% 29.78 in 5.0 mi SW 3.5 mph - 0.13 in Rain Rain
8:53 AM 57.0 °F - 55.0 °F 93% 29.80 in 4.0 mi South 5.8 mph - 0.08 in Rain Light Rain
9:03 AM 57.2 °F - 55.4 °F 94% 29.82 in 1.8 mi SW 3.5 mph - 0.03 in Rain Rain
9:15 AM 57.2 °F - 55.4 °F 94% 29.80 in 3.0 mi SSE 3.5 mph - 0.06 in Rain Rain
9:53 AM 57.9 °F - 55.0 °F 90% 29.80 in 4.0 mi South 4.6 mph - 0.11 in Rain Rain
10:13 AM 57.2 °F - 55.4 °F 94% 29.80 in 3.0 mi SSE 4.6 mph - 0.04 in Rain Rain
10:29 AM 57.2 °F - 55.4 °F 94% 29.79 in 4.0 mi South 3.5 mph - 0.07 in Rain Rain
10:53 AM 57.9 °F - 55.0 °F 90% 29.77 in 10.0 mi South 4.6 mph - 0.09 in Rain Light Rain
11:53 AM 57.0 °F - 55.0 °F 93% 29.74 in 10.0 mi South 5.8 mph - 0.02 in Rain Light Rain
12:33 PM 57.2 °F - 55.4 °F 94% 29.74 in 6.0 mi SSW 4.6 mph - 0.03 in Rain Light Rain
12:50 PM 57.2 °F - 55.4 °F 94% 29.74 in 4.0 mi SW 3.5 mph - 0.04 in Rain Light Rain
12:53 PM 57.0 °F - 55.0 °F 93% 29.73 in 4.0 mi SW 4.6 mph - 0.05 in Rain Light Rain
1:43 PM 57.2 °F - 55.4 °F 94% 29.70 in 6.0 mi SSW 4.6 mph - 0.04 in Rain Light Rain
1:53 PM 57.9 °F - 55.9 °F 93% 29.69 in 8.0 mi Calm Calm - 0.04 in Rain Light Rain
2:53 PM 57.9 °F - 55.9 °F 93% 29.67 in 6.0 mi Calm Calm - 0.01 in Rain Light Rain
3:39 PM 57.2 °F - 55.4 °F 94% 29.68 in 1.8 mi Calm Calm - 0.04 in Rain Rain
3:53 PM 57.9 °F - 55.9 °F 93% 29.66 in 1.8 mi South 3.5 mph - 0.08 in Rain Light Rain
3:58 PM 57.2 °F - 55.4 °F 94% 29.67 in 3.0 mi South 3.5 mph - 0.00 in Rain Light Rain
4:05 PM 57.2 °F - 55.4 °F 94% 29.67 in 5.0 mi Variable 3.5 mph - 0.00 in Rain Light Rain
4:22 PM 57.2 °F - 55.4 °F 94% 29.67 in 4.0 mi Variable 3.5 mph - 0.00 in Rain Light Rain
4:53 PM 59.0 °F - 55.9 °F 90% 29.66 in 9.0 mi Variable 4.6 mph - 0.01 in Rain Light Rain
5:23 PM 53.6 °F - 50.0 °F 88% 29.70 in 10.0 mi West 5.8 mph - 0.01 in   Overcast
5:53 PM 52.0 °F - 48.9 °F 89% 29.71 in 10.0 mi Variable 4.6 mph - 0.01 in Rain Light Rain
6:21 PM 50.0 °F - 46.4 °F 87% 29.73 in 7.0 mi West 3.5 mph - 0.00 in   Overcast
6:53 PM 48.0 °F - 42.1 °F 80% 29.76 in 10.0 mi Variable 5.8 mph - 0.01 in Rain Light Rain
7:05 PM 46.4 °F 43.5 °F 42.8 °F 87% 29.77 in 10.0 mi North 5.8 mph - 0.00 in   Overcast
7:53 PM 46.0 °F - 42.1 °F 86% 29.81 in 10.0 mi Calm Calm - 0.00 in   Overcast
8:10 PM 46.4 °F 43.5 °F 39.2 °F 76% 29.82 in 10.0 mi Variable 5.8 mph - 0.00 in   Overcast
8:53 PM 45.0 °F 43.5 °F 39.0 °F 80% 29.86 in 10.0 mi East 3.5 mph - 0.00 in   Overcast
9:53 PM 44.1 °F - 37.0 °F 76% 29.90 in 10.0 mi Calm Calm - N/A   Overcast
10:53 PM 44.1 °F - 35.1 °F 71% 29.92 in 10.0 mi Calm Calm - N/A   Overcast
11:53 PM 43.0 °F - 34.0 °F 71% 29.94 in 10.0 mi Calm Calm - N/A   Overcast